Terminal Aerodrome Forecast
Issued by NWS

Home | Current Version | Previous Version | Text Only | Print | Product List | Glossary On
Versions: 1 2 3 4 5 6 7 8 9 10 11 12 13
000
FTUS43 KLSX 272327
TAFCPS
TAF
KCPS 272327Z 2800/2824 VRB05KT P6SM FEW040 BKN250
      TEMPO 2809/2813 2SM BR
     FM281300 17010KT P6SM SCT050 BKN250=

USA.gov is the U.S. government's official web portal to all federal, state and local government web resources and services.